This is the latest recevied weather packets stored in our database for station/object DH4BS-10. If no packets are shown the sender has not sent any weather packets the latest 10 day(s).
| Time | Temp. | Humidity | Pressure | Rain* | Wind** | Luminosity | Snow |
|---|---|---|---|---|---|---|---|
| 1777702440 | 20.56° C | 35% | 1022.1 hPa | - | - | - | - |
| 1777698840 | 20° C | 36% | 1022.5 hPa | - | - | - | - |
| 1777695240 | 20° C | 36% | 1022.6 hPa | - | - | - | - |
| 1777691640 | 21.11° C | 36% | 1022.7 hPa | - | - | - | - |
| 1777688039 | 21.67° C | 35% | 1023.3 hPa | - | - | - | - |
| 1777684439 | 22.78° C | 35% | 1023.5 hPa | - | - | - | - |
| 1777680839 | 23.89° C | 35% | 1023.9 hPa | - | - | - | - |
| 1777677239 | 25° C | 35% | 1024.1 hPa | - | - | - | - |
| 1777673639 | 26.11° C | 35% | 1024.3 hPa | - | - | - | - |
| 1777670038 | 27.22° C | 35% | 1024.3 hPa | - | - | - | - |
| 1777666437 | 28.33° C | 34% | 1024.6 hPa | - | - | - | - |
| 1777662840 | 31.11° C | 34% | 1024.6 hPa | - | - | - | - |
| 1777659240 | 31.67° C | 34% | 1024.5 hPa | - | - | - | - |
| 1777655640 | 32.22° C | 33% | 1024.6 hPa | - | - | - | - |
| 1777652040 | 31.67° C | 34% | 1025.1 hPa | - | - | - | - |
| 1777648440 | 30.56° C | 34% | 1025.8 hPa | - | - | - | - |
| 1777644839 | 30° C | 34% | 1026.6 hPa | - | - | - | - |
| 1777641239 | 28.89° C | 34% | 1027.1 hPa | - | - | - | - |
| 1777637639 | 29.44° C | 33% | 1028 hPa | - | - | - | - |
| 1777634039 | 27.78° C | 33% | 1028.6 hPa | - | - | - | - |
| 1777630439 | 23.89° C | 34% | 1029.1 hPa | - | - | - | - |
| 1777626839 | 21.67° C | 35% | 1029.6 hPa | - | - | - | - |
| 1777623238 | 19.44° C | 35% | 1029.8 hPa | - | - | - | - |
| 1777619638 | 17.78° C | 35% | 1030.1 hPa | - | - | - | - |
| 1777616038 | 16.67° C | 35% | 1030.1 hPa | - | - | - | - |
* Rain since midnight (hover to see other rain measurements)
** Current wind speed in m/s (hover to see current wind gust speed)